"Pseudo-MPEC" for P117MDT

Created 2020 Oct 18 10:07:23 UT using Find_Orb

Click here for an explanation of pseudo-MPECs

 
 Astrometry: 
     P117MDT  C2020 10 14ffe!FasWF.22T0yGFW[N7Pb[a0Vw$CcCDc*qt+Y9qlm[En'y%=NpF52
     P117MDT  C2020 10 14m6,.Gb,%+II)g-Ual4T=Z!xIZ%OwSyDD+REH8$-b'k)iFj[4yyIwF52
     P117MDT  C2020 10 14OJW.S.,R`8+_:CcG_k8hZ83;'2nPfFYjWgCf]*wv#\6!F]`7P)KBF52
     P117MDT  C2020 10 14fI(5Sn[2_8T\X7fQ5b.qR/q6AstrometryJ.redacted;@SYbI2QF51
     P117MDT  C2020 10 14ieEJR^,uOwaf$4^VxUFH@UQ)$+oUt4Tx@9o4D$O$j-8(dj8d80+GF51
     P117MDT  C2020 10 14;hKG7A%[@FN5Lb3*k7OyO1=tI'23f4O._vE@q%UkK)QEm\6*e54vF51
     P117MDT  C2020 10 14,.4t3T.cn8bhdgCUl6xK)Z;4y+Hu7Vu%PcZ9%C-r_u\'r7sx'q#1F51
     P117MDT KC2020 10 15+E*#GZ;WU@axwap7\,.Ck,Kcc6H(5-+\g9BA;u!mMbcdyI\alMHq711
     P117MDT KC2020 10 15j1a99vFyXgyKctL$J'KwCh;v7Q^^$,UIq=b1mbdLO=wclickl8#q711
     P117MDT KC2020 10 15b^v9\e.2_p`=VpfN3here(9jW,st^f2;7N3A6xOHUhs;,)1r1x!J711
     P117MDT  C2020 10 15YE'esV#9B?*qs=l/pBWKdP@p4RiE*DpciQ)-,UP%_!xWma'i?,TIF51
     P117MDT  C2020 10 15L$]XG)ckSL5^UQF-PAl+t#R[*vT6*$c.;AVx*G+1\j@4j\u@XA%RF51
     P117MDT  C2020 10 15EW3OSh@]F]l;$H:cIyt`C:N3QI-/D2aijtsCm[bPforMX.OrqRKEF51
     P117MDT  C2020 10 15lo:@(ECjTho1FC^D`Q%',explanationZj5,;gX;4M/T/TxS.@VWF51
     P117MDT  C2020 10 17.39387 04 02 01.79 -00 19 57.5    ~AI97 22.3 GVNEOCPG96
     P117MDT  C2020 10 17.39900 04 02 01.58 -00 19 59.8    ~AI97 21.5 GVNEOCPG96
     P117MDT  C2020 10 17.40412 04 02 01.37 -00 20 01.2    ~AI97 21.6 GVNEOCPG96

Station data:
(711) McDonald Observatory, Fort Davis  (N30.671481 W104.021500)  US/Texas.
   0.76-m f/3.0 reflector.
(F51) Pan-STARRS 1, Haleakala  (N20.707235 W156.255910)  US/Hawaii.
   Observers N. Primak, A. Schultz, S. Watters, J. Thiel, T. Goggia. Measurer
   PS1 Science Consortium. 1.8-m Ritchey-Chrétien + CCD.
(F52) Pan-STARRS 2, Haleakala  (N20.707384 W156.255910)  US/Hawaii. 1.8-m
   Ritchey-Chrétien + CCD.
(G96) Mt. Lemmon Survey  (N32.442754 W110.788720)  US/Arizona.  Observers T.
   A. Pruyne, B. M. Africano, E. J. Christensen, G. A. Farneth, D. C. Fuls,
   A. R. Gibbs, A. D. Grauer, H. Gröller, J. A. Johnson, R. A. Kowalski, S.
   M. Larson, G. J. Leonard, D. Rankin, R. L. Seaman, F. C. Shelly. 1.5-m
   reflector + 10K CCD.

Orbital elements:  P117MDT
   Perihelion 2019 Nov 14.707732 +/- 35.9 TT = 16:59:08 (JD 2458802.207732)
Epoch 2020 Oct 17.0 TT = JDT 2459139.5   Earth MOID: 0.7533   AutoNEOCP
M  96.36838288 +/- 14               (J2000 ecliptic)
n   0.28571180 +/- 0.0123           Peri.  155.62003 +/- 8
a   2.28305964 +/- 0.0656           Node   128.03371 +/- 1.2
e   0.2283194 +/- 0.0222            Incl.   13.32462 +/- 0.10
P   3.45                   H 18.2   G  0.15   U  9.8  
q 1.76179283 +/- 0.00565    Q 2.80432646 +/- 0.13
From 17 observations 2020 Oct. 14-17; mean residual 0".24
Residuals in arcseconds: 
201014 F52  .11+  .01-    201014 F51  .03-  .19-    201015 F51  .00   .37-    
201014 F52  .30-  .06+    201015 711  .81+  .27+    201015 F51  .06-  .24-    
201014 F52  .01+  .06+    201015 711  .40-  .32+    201017 G96  .05+  .08+    
201014 F51  .02+  .10+    201015 711  .23-  .29+    201017 G96  .00   .29-    
201014 F51  .02-  .03-    201015 F51  .14-  .39-    201017 G96  .06-  .25+    
201014 F51  .26+  .09-    201015 F51  .00   .38-    

Ephemerides (geocentric):
Date (UTC) HH   RA              Dec         delta   r     elong  mag " sig PA
---- -- -- --  -------------   -----------  ------ ------ -----  --- ---- ---
2020 10 18 10  04 01 21.682   -00 26 18.30  1.5923 2.4539 141.8 22.0 .624 149
2020 10 18 11  04 01 20.012   -00 26 33.84  1.5922 2.4540 141.8 22.0 .650 149
2020 10 18 12  04 01 18.339   -00 26 49.37  1.5920 2.4541 141.9 22.0 .676 149
2020 10 18 13  04 01 16.664   -00 27 04.89  1.5918 2.4542 141.9 22.0 .702 149
2020 10 18 14  04 01 14.986   -00 27 20.40  1.5916 2.4543 142.0 22.0 .729 149
2020 10 18 15  04 01 13.305   -00 27 35.90  1.5915 2.4544 142.0 22.0 .757 149
2020 10 18 16  04 01 11.621   -00 27 51.40  1.5913 2.4545 142.0 22.0 .784 149
2020 10 18 17  04 01 09.934   -00 28 06.89  1.5911 2.4546 142.1 22.0 .812 149
2020 10 18 18  04 01 08.245   -00 28 22.37  1.5910 2.4546 142.1 22.0 .841 149
2020 10 18 19  04 01 06.552   -00 28 37.84  1.5908 2.4547 142.2 22.0 .870 149
2020 10 18 20  04 01 04.857   -00 28 53.31  1.5906 2.4548 142.2 22.0 .899 149
2020 10 18 21  04 01 03.159   -00 29 08.76  1.5904 2.4549 142.2 22.0 .929 150
2020 10 18 22  04 01 01.458   -00 29 24.21  1.5903 2.4550 142.3 22.0 .960 150
2020 10 18 23  04 00 59.754   -00 29 39.65  1.5901 2.4551 142.3 22.0 0.99 150
2020 10 19 00  04 00 58.048   -00 29 55.08  1.5899 2.4552 142.4 22.0 1.02 150
2020 10 19 01  04 00 56.339   -00 30 10.51  1.5898 2.4553 142.4 22.0 1.05 150
2020 10 19 02  04 00 54.626   -00 30 25.92  1.5896 2.4554 142.4 22.0 1.08 150
2020 10 19 03  04 00 52.912   -00 30 41.33  1.5894 2.4555 142.5 22.0 1.12 150
2020 10 19 04  04 00 51.194   -00 30 56.73  1.5893 2.4556 142.5 22.0 1.15 150
2020 10 19 05  04 00 49.473   -00 31 12.12  1.5891 2.4557 142.6 22.0 1.18 150
2020 10 19 06  04 00 47.750   -00 31 27.51  1.5889 2.4558 142.6 22.0 1.22 150
2020 10 19 07  04 00 46.024   -00 31 42.88  1.5888 2.4559 142.6 22.0 1.25 150
2020 10 19 08  04 00 44.295   -00 31 58.25  1.5886 2.4560 142.7 22.0 1.28 150
2020 10 19 09  04 00 42.563   -00 32 13.60  1.5884 2.4561 142.7 22.0 1.32 150
2020 10 19 10  04 00 40.829   -00 32 28.95  1.5883 2.4562 142.8 22.0 1.35 150
2020 10 19 11  04 00 39.092   -00 32 44.30  1.5881 2.4563 142.8 22.0 1.39 150
2020 10 19 12  04 00 37.352   -00 32 59.63  1.5879 2.4564 142.8 22.0 1.43 150
2020 10 19 13  04 00 35.609   -00 33 14.95  1.5878 2.4565 142.9 22.0 1.46 150
2020 10 19 14  04 00 33.864   -00 33 30.27  1.5876 2.4565 142.9 22.0 1.50 150
2020 10 19 15  04 00 32.115   -00 33 45.57  1.5874 2.4566 142.9 22.0 1.54 150
2020 10 19 16  04 00 30.364   -00 34 00.87  1.5873 2.4567 143.0 22.0 1.57 150
2020 10 19 17  04 00 28.610   -00 34 16.16  1.5871 2.4568 143.0 22.0 1.61 150
2020 10 19 18  04 00 26.854   -00 34 31.44  1.5869 2.4569 143.1 22.0 1.65 151
2020 10 19 19  04 00 25.094   -00 34 46.72  1.5868 2.4570 143.1 22.0 1.69 151
2020 10 19 20  04 00 23.332   -00 35 01.98  1.5866 2.4571 143.1 22.0 1.73 151
2020 10 19 21  04 00 21.567   -00 35 17.23  1.5864 2.4572 143.2 22.0 1.77 151
2020 10 19 22  04 00 19.800   -00 35 32.48  1.5863 2.4573 143.2 22.0 1.81 151
2020 10 19 23  04 00 18.030   -00 35 47.72  1.5861 2.4574 143.3 22.0 1.85 151
2020 10 20 00  04 00 16.256   -00 36 02.95  1.5860 2.4575 143.3 22.0 1.89 151
2020 10 20 01  04 00 14.481   -00 36 18.17  1.5858 2.4576 143.3 22.0 1.93 151
2020 10 20 02  04 00 12.702   -00 36 33.38  1.5856 2.4577 143.4 22.0 1.97 151
2020 10 20 03  04 00 10.921   -00 36 48.58  1.5855 2.4578 143.4 22.0 2.01 151
2020 10 20 04  04 00 09.137   -00 37 03.77  1.5853 2.4579 143.5 22.0 2.06 151
2020 10 20 05  04 00 07.350   -00 37 18.95  1.5852 2.4580 143.5 22.0 2.10 151
2020 10 20 06  04 00 05.561   -00 37 34.13  1.5850 2.4581 143.5 22.0 2.14 151
2020 10 20 07  04 00 03.768   -00 37 49.29  1.5848 2.4582 143.6 22.0 2.19 151
2020 10 20 08  04 00 01.973   -00 38 04.45  1.5847 2.4583 143.6 22.0 2.23 151
2020 10 20 09  04 00 00.176   -00 38 19.60  1.5845 2.4583 143.7 22.0 2.27 151